SCP
0 0 0 0 1 1 0 0 0 0 0 0 0 0 1 1 1 1 1 1 0 0 0 0 0 1 1 2 1 1 1 1 1 1 1 1 1 1 1 0 0 0 0 0
0 0 0 0 0 0 0 0 0 0 0 0 0 0 1 1 1 1 1 1 0 0 0 0 1 1 1 2 1 1 1 1 1 1 1 1 1 1 0 0 0 0 0 0
0 0 0 0 0 1 1 0 0 0 0 0 0 0 1 1 1 1 1 1 0 0 0 1 1 1 1 2 2 2 2 2 1 1 1 1 1 1 0 0 0 0 0 0
0 0 0 0 0 1 1 0 0 0 0 0 0 0 1 1 1 1 1 1 1 0 0 1 1 1 1 2 2 2 2 2 1 1 1 1 1 1 1 1 1 0 0 0
0 0 0 0 1 1 1 0 0 0 0 0 0 0 0 1 1 1 1 1 1 0 0 1 1 1 1 2 3 3 3 2 2 2 2 1 1 1 1 1 1 1 0 0
0 0 0 1 1 1 1 0 0 0 0 0 0 0 0 1 1 0 1 1 1 1 1 1 1 1 1 2 3 4 4 3 2 2 2 2 1 1 1 1 1 0 0 0
0 0 0 1 1 1 1 1 0 0 0 0 0 0 0 0 0 0 1 1 1 1 1 1 1 1 1 2 4 5 5 4 4 3 3 2 1 1 1 1 0 0 0 1
0 0 0 1 1 1 1 1 1 0 0 0 0 0 0 0 0 0 1 1 1 1 1 1 1 1 2 2 4 5 6 6 5 4 3 2 2 1 1 1 1 0 0 1
0 0 0 1 1 1 1 1 1 0 0 0 0 0 0 0 0 0 0 1 1 1 1 1 1 1 2 2 3 5 6 6 5 4 3 2 2 1 1 1 1 1 0 0
0 0 1 1 1 1 1 1 1 0 0 0 0 0 0 0 0 0 0 1 1 1 1 1 1 1 1 2 3 4 4 4 4 3 2 2 1 1 1 1 1 1 1 1
0 1 1 1 1 0 0 0 1 1 0 0 0 0 0 0 0 0 0 1 1 1 1 1 1 1 1 1 2 3 3 2 2 2 2 1 1 1 2 2 2 1 1 1
1 1 2 1 1 0 0 0 0 0 0 0 0 0 0 0 0 0 0 0 1 1 1 1 1 1 1 1 1 2 2 2 1 1 1 1 1 2 2 2 2 2 2 1
1 1 1 1 0 0 0 0 0 0 0 0 0 0 0 0 0 0 0 0 0 1 1 1 1 1 1 1 1 1 1 1 1 1 1 1 1 2 2 2 2 2 2 2
0 1 1 0 0 0 0 0 0 0 0 0 0 0 0 0 0 0 0 0 0 0 1 1 1 1 1 1 1 1 1 1 1 1 1 1 1 1 2 2 2 2 2 2
0 0 0 0 0 0 0 0 0 0 0 0 0 0 0 0 0 0 0 0 0 0 1 1 2 1 1 0 0 1 1 1 2 2 2 1 1 1 2 2 2 2 2 2
1 0 0 0 0 0 0 0 0 0 0 0 0 0 0 0 0 0 0 0 0 0 0 1 2 2 1 0 0 0 1 1 1 2 2 2 2 2 2 2 2 2 2 2
1 1 0 0 0 0 0 0 0 0 0 0 0 0 0 0 0 0 0 0 0 0 0 1 2 2 2 1 1 0 1 1 1 2 2 2 2 2 2 2 1 1 2 2
1 1 0 0 0 0 0 0 0 0 0 0 0 0 0 0 0 0 0 0 0 0 0 0 1 2 2 1 1 1 1 1 1 1 2 2 2 2 2 2 2 2 2 1
0 0 0 0 0 0 0 0 0 0 0 0 0 0 0 0 0 0 0 0 0 0 0 0 1 2 2 2 1 1 1 1 1 1 1 1 2 2 2 2 2 2 2 2
0 0 0 0 0 0 0 0 0 0 0 0 0 0 0 0 0 0 0 0 0 0 0 0 0 1 2 1 1 1 1 1 1 1 1 1 2 2 2 2 2 1 2 2
0 0 0 0 0 0 0 0 0 0 0 0 0 0 0 0 0 0 0 0 0 0 0 0 0 0 1 1 1 1 1 1 1 1 1 1 2 2 2 3 2 1 1 1
0 0 0 0 0 0 0 0 0 0 0 0 0 0 0 0 0 0 0 0 0 0 0 0 0 0 0 1 1 1 1 1 1 1 1 1 2 2 2 2 2 2 1 1
0 0 0 0 0 0 0 0 0 0 0 0 0 0 0 0 0 0 0 0 0 0 0 0 0 0 0 0 0 1 1 1 1 1 2 2 2 2 3 2 2 2 2 2
0 0 0 0 0 0 0 0 0 0 0 0 0 0 0 0 0 0 0 0 0 0 0 0 0 0 0 0 0 0 0 1 1 2 2 2 3 3 4 3 2 2 2 2
0 0 0 0 0 0 0 0 0 0 0 0 0 0 0 0 0 0 0 0 0 0 0 0 0 0 0 0 1 1 1 1 1 2 2 3 4 4 4 3 1 1 2 2
0 0 0 0 0 0 0 0 0 0 0 0 0 0 0 0 0 0 0 0 0 0 0 0 0 0 0 0 1 1 1 1 2 2 3 3 4 4 3 2 1 1 1 1
Wind_Speed
7 6 5 5 5 5 4 4 2 1 3 4 4 5 5 7 7 6 7 7 8 8 8 7 6 5 5 5 5 5 6 5 4 2 2 2 2 1 2 2 2 2 2 3
6 7 4 3 4 5 5 5 3 2 3 3 4 5 5 6 7 5 5 6 7 8 8 7 6 5 6 5 5 5 5 4 4 3 3 2 2 2 2 1 2 2 2 2
7 3 3 5 6 6 6 4 3 3 3 5 6 6 6 6 6 5 4 4 6 7 8 8 7 6 5 5 4 5 5 5 5 5 3 2 2 1 2 1 1 1 1 1
5 4 5 6 5 6 5 2 3 4 6 5 5 4 5 7 7 8 6 5 5 6 7 7 7 7 6 5 4 4 5 4 5 6 4 4 3 2 2 2 1 1 1 1
4 4 6 6 5 6 4 4 5 7 8 7 7 6 3 7 7 8 7 6 5 6 6 7 7 6 6 6 5 4 4 4 4 5 5 4 3 2 2 2 2 2 1 1
5 5 5 4 4 5 4 5 6 8 7 8 7 6 2 3 5 7 7 6 6 5 6 6 6 6 5 5 5 4 4 4 4 5 5 4 4 3 3 2 2 2 1 1
7 8 7 5 6 6 7 5 3 5 6 6 4 4 2 3 4 5 7 6 5 5 5 5 6 6 5 5 5 5 4 4 4 4 5 4 3 3 3 3 3 2 2 1
6 7 7 5 5 5 6 6 4 4 3 2 3 3 4 6 5 6 6 6 5 5 4 4 4 6 5 6 5 5 4 4 4 4 4 4 4 2 2 2 2 2 2 2
3 2 2 2 4 5 5 6 6 7 8 6 3 2 4 6 6 6 6 6 5 5 5 4 3 4 5 5 5 5 5 4 4 3 3 4 4 3 2 2 2 2 1 2
6 4 5 4 5 6 6 6 4 4 4 5 4 4 4 8 6 5 5 5 5 5 4 4 3 2 3 4 4 5 4 4 4 3 3 3 3 3 3 2 2 2 2 2
6 6 5 5 7 7 6 7 5 4 4 3 3 1 3 7 6 5 4 5 5 4 4 4 3 3 3 3 3 4 4 3 3 3 3 3 3 3 3 3 3 2 2 2
4 5 6 6 5 6 6 6 6 5 5 4 4 0 4 6 5 4 4 4 4 4 4 4 4 3 3 2 2 3 4 3 3 2 2 2 2 2 2 2 1 1 1 1
4 4 5 4 4 5 6 6 7 6 5 5 5 2 3 4 4 4 4 3 3 3 4 4 4 3 3 2 2 2 2 3 3 3 2 2 2 2 2 2 1 1 1 2
4 6 7 7 4 2 6 7 7 7 6 6 6 4 3 2 3 3 3 2 2 2 3 3 3 3 3 2 2 2 1 1 2 2 2 2 2 2 2 1 2 2 2 2
5 7 8 9 9 7 8 9 10 10 9 8 6 5 2 1 2 2 2 2 1 2 2 2 3 3 3 2 2 2 2 2 2 2 2 2 2 2 2 2 2 2 2 2
5 7 9 10 10 9 10 10 11 11 10 9 8 6 3 1 2 1 1 1 1 1 1 1 2 2 2 2 2 2 2 2 2 2 2 2 1 1 1 1 2 2 1 2
6 7 7 8 8 9 10 8 9 8 8 7 7 3 0 0 1 2 1 1 1 1 0 0 2 2 2 2 1 2 2 1 1 2 2 2 2 1 1 2 1 1 1 1
9 8 5 7 7 9 3 1 3 5 5 4 3 0 1 1 2 1 1 1 0 0 0 1 1 2 1 1 1 1 1 2 2 1 1 2 2 1 1 1 1 1 1 1
8 7 6 5 7 7 4 2 1 2 4 2 1 2 1 0 2 1 1 2 1 1 1 1 1 1 1 1 1 2 2 2 2 2 2 2 2 2 1 1 1 1 2 2
6 6 6 6 7 5 1 3 2 1 3 1 1 0 1 0 2 1 2 2 2 2 2 2 2 1 1 1 2 2 1 1 2 1 1 1 1 2 2 2 2 1 1 2
5 6 7 8 7 4 2 2 0 2 0 2 1 1 0 2 1 1 2 2 1 1 1 1 2 1 0 1 1 2 2 1 1 0 0 1 1 2 1 1 1 1 1 1
5 4 5 5 6 3 3 1 1 1 2 1 1 0 1 2 2 2 2 1 1 1 0 1 1 1 0 0 1 1 1 1 1 1 1 1 1 1 1 1 1 1 1 1
4 3 2 3 2 1 1 1 1 2 2 2 2 2 1 1 1 2 2 1 1 1 1 0 1 1 1 1 1 1 1 1 1 1 1 1 1 1 1 1 1 1 1 1
3 3 4 4 4 2 1 2 2 3 3 2 2 1 1 1 2 2 2 2 2 2 1 1 2 2 1 1 1 1 1 1 2 1 1 1 1 0 0 0 0 1 1 1
4 3 5 6 4 3 2 2 2 2 1 1 1 1 1 1 2 2 2 2 2 1 1 1 2 2 2 1 1 1 1 1 1 1 1 1 0 0 0 1 1 1 1 1
5 5 5 4 3 3 3 2 2 2 1 1 2 2 1 2 3 3 2 1 1 1 1 1 1 1 1 1 1 1 1 2 2 1 1 1 1 1 1 1 1 2 2 2
Wind_Direction
207 221 226 223 245 277 288 271 251 176 186 211 216 220 198 178 184 188 180 176 171 167 160 150 147 146 144 143 147 148 148 146 136 129 121 112 107 91 86 99 95 65 53 65
215 219 227 245 260 264 256 254 249 214 208 241 240 237 206 189 188 188 188 180 170 162 156 151 153 154 158 159 160 149 148 152 145 141 139 142 140 139 127 114 109 102 82 78
226 207 204 228 237 248 245 258 274 273 264 248 247 241 199 188 170 170 190 183 169 164 160 159 164 159 156 159 161 158 157 155 147 140 134 135 118 106 102 111 108 120 122 116
229 221 226 237 244 259 260 266 276 270 269 261 248 266 203 175 176 181 185 183 169 162 162 162 161 158 160 159 159 160 153 152 147 146 146 147 142 146 150 146 142 161 164 122
221 218 225 230 244 271 278 285 270 261 260 265 251 258 210 173 182 177 170 168 167 163 157 157 156 155 159 156 154 155 147 148 146 147 151 156 149 155 153 152 150 174 185 160
235 240 250 255 249 260 274 266 260 255 255 253 233 238 207 180 168 162 159 160 159 152 145 147 146 145 149 146 147 148 148 147 150 152 154 157 155 157 152 156 159 175 155 170
226 221 220 228 236 225 230 243 247 223 220 235 200 224 142 108 107 124 135 139 134 126 134 146 150 148 148 148 150 155 152 151 157 157 158 163 165 172 177 171 172 177 172 185
234 219 199 206 237 256 239 238 258 273 263 263 220 199 117 110 104 104 111 119 121 121 117 126 148 155 155 156 155 154 157 157 162 169 168 167 172 177 181 176 163 186 188 188
264 210 169 223 259 263 262 250 265 280 287 280 232 141 144 120 119 119 119 120 123 126 126 125 123 147 152 158 159 159 163 162 167 175 179 172 178 180 187 188 176 190 213 202
283 252 204 204 248 249 259 283 277 254 266 267 241 216 182 153 144 131 126 127 126 131 128 121 120 130 139 144 152 158 166 170 176 176 190 180 183 183 187 192 194 193 213 212
290 264 227 206 220 237 230 243 255 271 268 276 279 308 87 138 138 133 124 118 122 119 119 118 116 113 104 127 151 158 164 172 176 185 196 188 180 189 194 197 198 196 208 207
288 280 255 236 232 241 251 252 255 257 268 268 274 304 100 109 100 95 93 93 101 112 118 121 117 118 121 122 140 163 164 168 170 184 190 187 180 190 194 190 185 189 229 230
328 278 271 234 212 207 230 245 258 272 278 265 256 202 118 115 113 110 108 103 100 115 123 126 128 126 135 142 151 148 159 167 163 170 174 180 188 192 202 194 198 225 236 258
300 263 261 264 285 266 257 254 254 256 254 262 257 235 178 153 137 116 110 114 120 122 127 126 130 133 144 155 158 148 148 153 156 157 174 191 196 194 198 198 205 223 227 238
269 272 271 270 273 268 264 266 263 258 260 262 262 262 256 156 122 124 130 130 114 98 105 132 144 152 159 162 163 150 150 156 154 158 182 202 204 187 192 205 214 212 223 231
266 275 280 275 265 260 260 254 261 263 265 260 261 264 270 154 122 131 149 133 110 94 33 152 151 157 167 170 169 159 164 172 163 167 176 181 187 191 201 204 217 220 223 236
257 266 277 275 276 272 258 245 240 247 254 257 260 268 264 310 162 174 156 146 137 152 43 293 180 185 185 181 183 181 168 165 173 176 170 167 181 196 206 212 204 210 232 249
258 260 264 272 274 259 260 261 242 247 252 261 283 10 334 2 328 255 132 119 136 115 88 309 212 181 179 180 170 150 158 172 182 184 179 174 178 177 175 195 212 218 232 237
246 251 256 260 263 266 261 264 223 240 260 250 260 268 274 91 304 269 102 88 35 26 10 337 295 181 187 182 166 156 176 190 191 196 197 182 175 177 190 212 225 237 239 237
241 241 247 254 263 263 257 60 37 305 256 146 154 170 3 1 264 273 70 83 65 35 10 352 328 228 187 176 166 177 204 203 201 199 199 178 180 185 200 217 221 226 231 243
222 229 236 249 259 266 90 96 235 245 251 83 82 58 324 269 302 3 25 39 51 35 7 356 336 327 89 148 166 191 209 209 199 155 202 195 195 197 204 214 228 228 234 248
238 240 235 245 250 243 113 146 206 351 8 359 9 9 6 1 359 357 356 351 357 342 333 333 324 315 357 290 220 213 213 180 121 137 210 228 209 215 206 191 229 235 241 245
234 254 276 254 258 32 277 319 6 342 320 333 359 21 37 339 300 303 297 289 280 277 271 275 277 266 246 226 240 239 203 148 134 143 187 217 206 215 191 182 214 254 257 251
261 272 270 265 249 267 294 313 328 323 329 358 23 12 347 289 286 285 281 274 271 255 247 256 244 218 221 218 207 225 171 147 147 173 191 202 187 183 33 19 242 239 261 269
269 271 269 271 278 293 277 301 294 298 320 339 343 317 304 274 273 276 275 269 264 253 227 234 246 213 201 193 198 189 183 157 185 197 187 180 166 166 79 10 346 323 284 247
258 257 255 259 269 271 279 297 306 305 308 320 319 313 298 276 271 272 270 262 243 246 229 244 243 222 221 204 186 166 171 184 203 201 190 176 170 161 158 149 349 349 305 307